timestamp,gas_concentrations,,corrected_fluxes_and_quality_flags,,,,,,,,,,storage_terms,,,turbulence,,,footprint,,
ISOdate,CO2_1_1_1,H2O_1_1_1,Tau_1_1_1,QcTau_1_1_1,H_1_1_1,QcH_1_1_1,LE_1_1_1, QcLE_1_1_1,Fc_1_1_1, QcFc_1_1_1,E_1_1_1, QcE_1_1_1,Sa_1_1_1,Sw_1_1_1,Sc_1_1_1,ustar_1_1_1,MO_length_1_1_1,ZL_1_1_1,Fetchmax_1_1_1,Fetch70_1_1_1,Fetch90_1_1_1
yyyymmddHHMM,[µmol+1mol_a-1],[mmol+1mol_a-1],[kg+1m-1s-2],[#],[W+1m-2],[#],[W+1m-2],[#],[µmol+1s-1m-2],[#],[mmol+1s-1m-2],[#],[W+1m-2],[W+1m-2],[µmol+1s-1m-2],[m+1s-1],[m],[#],[m],[m],[m]
201801050030,407.67233142662286,1.0910034810171541,0.29824606940708831,0,-5.4520809856885135,1,3.6679236954571346,1,-6.91000025686546171E-002,0,8.00568989089082556E-002,1,-9999.,-9999.,-9999.,0.47778713030246150,1688.7709543484134,1.27903668312047882E-002,106.68910005737303,195.06170164811829,292.23797396475726
201801050100,407.51758512337750,1.1183727509635037,0.26744011418502855,0,-2.3982114360727480,0,-0.47792452253093526,2,0.16667180732445483,1,-1.04312519781876185E-002,2,-8.51714502082083907E-002,1.1005026339346156,-0.13580797623784654,0.45239374982033753,3259.5337866974287,6.62671455904287419E-003,108.23517066485229,197.88841181251999,296.47290088506344
201801050130,407.32268718489377,1.1400183320825701,0.16107668688276391,0,-2.9954762443286365,0,1.6146392573696355,0,-0.11574386187099089,2,3.52386202093796994E-002,0,-2.1297988907547496,0.87063091114428992,-0.17108639117694530,0.35105069009033618,1219.2999473817108,1.77150831888275018E-002,93.495561293467830,170.93970492433107,256.09882726921171
201801050200,407.20181041457158,1.1553491695419480,0.27516899049216736,0,-2.9963323917079681,1,-0.65323162458235373,1,0.29120412541513330,0,-1.42562463761080945E-002,1,-0.34081951796686571,0.61673839893406335,-0.10612457104936723,0.45879856578061823,2721.2862487102207,7.93742297791624231E-003,102.08962031378323,186.65238574801035,279.63928636840677
201801050230,407.18130141991168,1.1519658234720118,0.23156351747771101,0,-4.3837038751544801,0,1.3166540798096447,1,0.21546434388573851,0,2.87343993719940856E-002,1,-0.47720741979134240,-0.13612692428634990,-1.80082875196747698E-002,0.42085222296011626,1435.6944549298453,1.50449839280430171E-002,100.57712803267874,183.88706747347965,275.49633568619447
201801050300,407.23928591011151,1.1009774393322964,0.20574348404155929,0,-12.352177875729542,0,2.5577284902677642,1,-0.63752578263801607,2,5.58204381424420165E-002,1,0.52819281992586919,-2.0509047371812739,5.09008321319294813E-002,0.39674450049319865,426.81848114891750,5.06069932629363700E-002,101.18805852160801,185.00404325352818,277.16976894434345
201801050330,407.58705231092688,1.1217322998704951,0.11707939486720580,0,-5.5111070584778385,0,-0.38784593581828231,1,-9.29399845965205862E-002,0,-8.46358704214688826E-003,1,-2.7529869216438767,0.83528990042173190,0.30542195419930623,0.29921958347214372,410.39122886186868,5.26327038224060698E-002,101.70776868602042,185.95423918712956,278.59333560124742
201801050400,407.73648256964435,1.1288590174111235,2.97055161400308423E-002,0,-3.9181988919924060,0,-0.47198103646768186,1,0.20234742450475537,0,-1.02980312601478503E-002,1,-4.1437592953709546,0.28696497079665106,0.13128271353342866,0.15069218621022126,73.716971809998327,0.29301257864570024,208.93221196263926,1977.0000000000000,9961.0000000000000
201801050430,407.65746128184753,1.1220709742319557,4.83333131968716953E-002,0,-9.7057685130168210,1,9.40997162780610324E-002,2,-7.54394117218688542E-002,1,2.05281838171192735E-003,2,-4.2658104325132307,-0.27354283109256317,-6.94683619057494262E-002,0.19215776046078870,61.704628525604747,0.35005477735008061,119.21128699771620,1068.0000000000000,5158.0000000000000
201801050500,407.82867482645486,1.1207414644783962,7.01507483449529123E-002,0,-3.0115980820350563,0,-0.50783552187737291,0,0.26790452409165688,0,-1.10769247683839746E-002,0,-4.1844109362151718,-5.36346364997951214E-002,0.15065656561937024,0.23139139027546676,347.30406527417267,6.21933405327354458E-002,104.69922197148423,191.42356986804856,286.78738960380292
201801050530,407.90613472869205,1.1245300411908643,6.53255018749111238E-002,0,-0.67159201175880423,1,-0.69520494869417004,0,-2.43112875865741547E-002,2,-1.51626086205123439E-002,0,-2.2212361466768629,0.15291424624803038,6.81883022551405260E-002,0.22324474037561717,1398.7132561875417,1.54427649158590946E-002,109.01563274520011,199.31534541100947,298.61070743694648
201801050600,407.72528764080425,1.1173112924863124,0.12706172675544650,0,-0.10540724150006807,2,1.2910716418005099,0,-0.63679843374174017,1,2.81596633655015159E-002,0,1.0162774088194209,-0.29124742684198540,-0.15914346514482039,0.31140419822474302,24184.116053894166,8.93148211489910296E-004,125.07596570154287,228.67875623568517,342.60244756632329
201801050630,407.41502830785367,1.1170098464671268,7.15352060832872144E-002,0,-2.8413507614373423,0,2.7479581584487480,2,-1.7738078626810163,2,5.99384216250085575E-002,2,1.1441883937405957,-1.21595933823480107E-002,-0.27297918976060126,0.23367555367317183,379.09222404844786,5.69782196250997949E-002,116.67480687685996,213.31875849198406,319.59037198820704
201801050700,408.17336839675869,1.1236401637751334,0.14763896290747144,0,-4.4777985518450283,1,0.94510678384276192,1,-0.29980474340056940,2,2.06158710945944651E-002,1,1.6219622528519655,0.26736963011780779,0.66705644858094792,0.33574338034821394,713.49280679325011,3.02736058364482807E-002,104.72473739006581,191.47022019094106,286.85728028829777
201801050730,407.79749190861753,1.1164674554415843,0.25221911711166151,0,-7.1293454613653768,0,3.3579818652298639,0,0.42643614349613401,1,7.32572835979609510E-002,0,3.2680594381851167,-0.28907705811601836,-0.33048220529300371,0.43892791628026029,1001.3298176949754,2.15713140848261264E-002,98.444644706829962,179.98820783315449,269.65513347974087
201801050800,407.36470340340702,1.0697502715437899,0.32351072761293731,0,-5.4605386085312659,0,6.7380778954789022,0,0.88596938931648062,0,0.14699244177445012,0,-0.85369138606011541,-1.8837942185067105,-0.38070755768623915,0.49697927447496776,1898.1687587820438,1.13793886344750496E-002,108.73857248272728,198.80879088737061,297.85179645421573
201801050830,407.35273345606504,1.0350275563449365,0.39155192291226648,0,-4.8461949006152398,1,6.4674361663343864,0,0.44445389766780435,1,0.14106980964043966,0,-3.6139747181736914,-1.4014378505786484,-1.05379063325642241E-002,0.54652823836392861,2844.8902277848829,7.59256008862542724E-003,104.29407270372867,190.68282779085987,285.67762299129504
201801050900,407.49715456036517,1.0012893868842585,0.37638290083220377,0,-6.6761417128490814,0,5.6777038242934141,0,-0.23989966347600322,2,0.12381327089473244,0,-6.8179585819215180,-1.3637758086173331,0.12730533134311173,0.53549223658471856,1942.8161056079418,1.11178818919873915E-002,103.39087393568215,189.03149238239831,283.20362163671018
201801050930,407.14217045248165,0.97210581373547111,0.58455178563723575,0,-19.613210451295824,0,6.3113872470773540,0,-0.12152862056504798,0,0.13760004964874392,0,-6.3975491242561615,-1.1812989690592237,-0.31327377024756120,0.66695685178886066,1277.8877121648229,1.69028935753738722E-002,113.78584987058923,208.03682369894165,311.67707117369235
201801051000,407.41237588638444,0.98591113328638613,0.40520072857749534,0,-8.0287151523128539,0,4.4544423263715878,1,-0.75288134844780785,2,9.71119814325193953E-002,1,-0.90807595759118698,0.55899062298341173,0.23852374124646913,0.55521511412500302,1801.0721225160266,1.19928567712355976E-002,99.520584483966218,181.95536889915124,272.60229922028333
201801051030,395.33741659620910,0.98987333479092576,0.42323192298684803,0,-11.496583215059699,1,5.0282083313555725,0,0.55184931030681827,0,0.10960138740288149,0,-4.8783190838281048,0.16058791721268970,-10.667552049842465,0.56721136608887024,1341.1323256677879,1.61057932812444481E-002,106.91327993580772,195.47157396440201,292.85203738306518
201801051100,407.64547102702022,0.95077738891225194,0.30126036856195776,0,-24.785181944142384,0,2.7588048269548557,0,-2.78415745399305248E-002,0,6.01132251256578237E-002,0,-9.7991331502837156,-1.5878475166429877,10.892198044965399,0.47813440299861615,372.67389973560307,5.79595190737111493E-002,103.82168347237331,189.81914961512430,284.38367570127360
201801051130,407.52506567828920,0.93304924193226457,0.14803439626112500,0,-15.821245581755109,0,0.23516467451298873,0,0.20540236353638264,0,5.12236693770923724E-003,0,-9.6123671002343016,-0.72171796765234497,-0.10676983092603369,0.33482704272083635,200.56751686108558,0.10769440803796912,95.270465080110796,174.18479512284324,260.96056371943939
201801051200,407.74126786849450,0.93999544365782672,0.35537753223507701,0,-12.779710048525269,0,0.52416268362870766,2,-0.26098219342103490,2,1.14157055333864305E-002,2,-3.9618845151647579,0.28306096265013164,0.19187983456794494,0.51856300136076106,922.56577440136152,2.34129647981098192E-002,111.49984940463793,203.85728576472849,305.41536173671290
201801051230,407.80379417889515,0.95566573636343333,0.18538324849585244,0,-5.5442040260610117,0,-1.24475574032893461E-002,2,-0.17198928047859513,2,-2.71122883793089491E-004,2,2.9018279019618287,0.63835309048246969,5.54790091849478584E-002,0.37458014286245461,801.62974393321190,2.69451079672008952E-002,101.39310848777022,185.37893998900520,277.73143256921759
201801051300,407.85186972803098,0.95022707521518912,0.14708169860702547,0,-4.5395984442983313,1,-0.58300287609309243,2,-2.2098266119984400,1,-1.26974185214174824E-002,2,-2.3864996687117266,-0.22169374941889236,4.26805923538903578E-002,0.33355559762771114,691.39144533665751,3.12413469181447093E-002,96.435827136563475,176.31544863520364,264.15267093685890
201801051330,408.65919719573481,0.93989634733946748,0.17137959935992159,0,-11.868960992775488,0,-0.31775568679992694,2,-0.24629449283869437,0,-6.91928024504989518E-003,2,-4.9417663566306613,-0.42161526052401982,0.71746830085768343,0.35986882484224136,332.15490905109795,6.50298984341583508E-002,107.51426051079012,196.57035812839337,294.49821628541400
201801051400,408.45330120273906,0.93739103359651865,0.16769071084602119,0,9.0303949805088291,2,-1.3683524986788766,2,-0.26235573087600550,2,-2.97977231292072681E-002,2,1.1212133050105226,-0.10224626568731465,-0.18298619237092908,0.35596741347858046,-422.58118572365862,-5.11144384315420919E-002,89.471657917657723,163.58272619519158,245.07673251591152
201801051430,408.57195647571496,0.93122690645525363,0.34015300281949890,0,-3.2093763270562974,0,4.2688961354130690,0,-0.66998011860594087,0,9.29776945583299513E-002,0,5.0000426987186612,-0.25140847446384790,0.10540435444292962,0.50709793983892115,3438.2372231551044,6.28228903303499307E-003,116.59569821802403,213.17412263321930,319.37368111567321
201801051500,408.31343902057182,0.92963340256613136,0.58532502609543235,0,15.234383269463633,0,7.6317152876502075,0,-1.8124829365830815,0,0.16623759434822646,0,2.8093691113129506,-6.49625481662544357E-002,-0.22956563769274474,0.66531966079981286,-1635.9497837886693,-1.32033392553021506E-002,111.53804361762293,203.92711696748452,305.51998160335262
201801051530,408.21496790843855,0.91493831567995276,0.53235750765063394,0,21.759839427470833,0,5.5087857906516273,0,-0.82822827478177752,0,0.12000042044940396,0,1.2668838751004912,-0.59908918955440515,-8.74490407799618091E-002,0.63447964893755981,-993.53031476138551,-2.17406551959993671E-002,105.68208799879183,193.22056243500850,289.47961192402778
201801051600,408.06608465696121,0.90286818821724146,0.75756230517260281,0,51.765452151371100,0,13.393957317823569,0,0.73814886247822642,0,0.29180484326974515,0,3.6274586286191886,-0.49189912594513424,-0.13218848480817247,0.75696082801959919,-709.35693501804747,-3.04501146513080252E-002,125.52114609691152,229.49268798142390,343.82186563922301
201801051630,408.31404447865935,0.91959837075931217,0.66340209917916393,0,59.393590210403438,0,7.4666496515354597,0,2.1116208328303800,0,0.16270128826782965,0,5.2185034490185238,0.68129458205851345,0.22002943767997540,0.70856251855837116,-507.16671992887626,-4.25895453136773822E-002,117.50311320432731,214.83316663334804,321.85923134526485
201801051700,408.37560780019760,0.92278235586346824,0.55963888807793749,0,63.021660044832537,0,11.857063925688466,0,-0.35181292382756801,0,0.25841049525711934,0,4.3294859258787701,0.12957825906107270,5.46029546774492586E-002,0.65094852185922647,-370.65055757427359,-5.82759139534590881E-002,105.09595804989959,192.14892995187421,287.87411118728693
201801051730,408.29828559404342,0.92564734012870020,0.55916225765345118,0,67.694216943042363,0,11.630442408841606,0,-0.25415022100329576,0,0.25350568535005530,0,3.7329465796364967,0.11649793824325461,-6.85317313284789786E-002,0.65090136108951979,-344.95839685099708,-6.26162464725565360E-002,113.77248953656571,208.01239674728666,311.64047514893980
201801051800,408.60153718730965,0.93130848521396803,0.57160127245989267,0,67.479615678532738,0,8.3885787022474894,0,4.53436000620777158E-002,0,0.18288279299120824,0,5.9290903039500291,0.22992362955302548,0.26851396328155885,0.65842324515684258,-358.17443789425118,-6.03058111209412162E-002,105.45813770530808,192.81110987323746,288.86617737446920
201801051830,408.98894516857951,0.94621397137231888,0.43684399907072119,0,54.992142741508530,0,11.312868980637754,1,-0.29275775132814408,0,0.24669170539979857,1,6.1969257943317420,0.60454274782054496,0.34263460538971491,0.57593508343085531,-294.10929851449322,-7.34420846572982067E-002,107.23943562492535,196.06789058613080,293.74542834553046
201801051900,408.86546636373566,0.94929163916460990,0.68659253065282433,0,81.840092417993787,0,16.688479960131936,0,1.2207063436613663,0,0.36399982940209991,0,6.5243013940178756,0.12465501746374333,-0.10908495078655700,0.72244577606106219,-390.03008153867671,-5.53803437796068360E-002,121.29163791108486,221.75979808528328,332.23658745777186
201801051930,408.85263206415419,0.93652233916908878,0.71976858971406577,0,114.48104318989925,0,14.939268932833462,0,0.46424506246980446,0,0.32597717785326347,0,11.005932982404914,-0.51608175673388046,-1.13183062184906841E-002,0.74034252036171966,-300.04716820054961,-7.19886814114596152E-002,115.04936287946380,210.34692845596993,315.13802905592263
201801052000,408.70058289430398,0.96293808510951628,0.69271711275845349,0,90.021013474387473,1,17.033734289890177,1,0.79196974406468623,1,0.37168035492781903,1,0.11983390703383313,1.0677668796174049,-0.13410882540807995,0.72624700903599637,-360.23619971310933,-5.99606591930576527E-002,112.74021945868894,206.12507781927249,308.81292748023770
201801052030,408.90972734115138,0.94759807738104684,0.66754433487721054,0,43.283961338636551,0,11.754232828682420,0,3.39807519168759953E-002,0,0.25644685164079095,0,-3.5978737849564344,-0.62064311778333914,0.18461449046180953,0.71264316550646578,-708.01619830535219,-3.05077765899988418E-002,115.12910442161323,210.49272142727955,315.35645349390217
201801052100,408.71374076180444,0.96012094745988030,0.64584006482580247,0,35.590881640173265,0,8.3940378346904936,0,-0.37575120377529059,0,0.18315847495809912,0,3.3656462383596626,0.50646042256365320,-0.17295139427129341,0.70106202693453734,-819.89429654433729,-2.63448594422951224E-002,110.80760193486628,202.59163660897926,303.51918866992816
201801052130,408.30105156936054,0.98585408908366334,0.33944480841643848,0,4.4205332280175185,1,-0.95726566650585221,2,1.1054532325119348,1,-2.08879067302616857E-002,2,0.40258483633377784,1.0409024417015307,-0.36425267486934076,0.50820588750454498,-2515.0751143211378,-8.58821268478504769E-003,100.03699759664077,182.89953677063514,274.01683474167857
201801052200,408.13083503927669,1.0052763797061526,0.28578603705945188,0,-0.40858930103386398,2,2.7165567168588116,0,-0.24615237380983790,1,5.92830571779018878E-002,0,3.1334808935166709,0.78515111730819087,-0.15016418133542797,0.46642811670013296,21036.329521730218,1.02679509643959139E-003,101.19840717084118,185.02296388485883,277.19811549786715
201801052230,407.76146802429571,1.0203252943022469,0.35280375482003795,0,-6.7235489020085311,0,2.7624077779547278,0,0.41208322923028140,0,6.02810369896135748E-002,0,-1.1989607248883805,0.60856489089875720,-0.32595132610984817,0.51816376909649808,1752.8404532713164,1.23228557166672192E-002,94.836211441825483,173.39084097396329,259.77107572702892
201801052300,407.50042090922085,1.0270948096865946,0.16864967339554746,0,-22.566878997993523,0,-0.69845123873841319,1,0.15478059471257022,0,-1.52342766847534845E-002,1,-13.184415463768344,0.27451078833149206,-0.23089072238448341,0.35784691799033519,172.04649115123357,0.12554746019791249,88.653680602731185,162.08720278302178,242.83616592443482
201801052330,407.35131699066039,1.0429117054949169,0.20282337072408199,0,-21.538501876961877,0,-1.0507194349127329,1,5.99489807687425547E-002,0,-2.29109630569947799E-002,1,-8.2354804138580562,0.64254766211292480,-0.13207777095470896,0.39213741493945786,237.24799034363991,9.10439745715597298E-002,99.864490957001053,182.58413961520287,273.54431232995449
201801060000,407.45388057785783,1.0605221803011473,0.21460003562758545,0,-21.693953544542904,0,-1.0333187337158209,0,7.04879120737673670E-002,0,-2.25325055620951044E-002,0,1.1863155923325632,0.71537385061658232,9.08511400960646948E-002,0.40336422004416245,256.39610680964307,8.42446489097299495E-002,98.193113475132591,179.52832851983993,268.96615046741283
